Back to catalog

STARLINK-37078

AliveCommunicationsVLEO
NORAD 68174·PAYLOAD·🇺🇸 United States

Launched Mar 14, 2026 from Vandenberg Space Force Base

Loading…

Next Passes (next 24 hours)

TLE

FreshSource: CelesTrak SupGP

Epoch: Sep 14, 2026, 21:30 UTC

1 68174C 26050H   26257.89631944 -.00030358  00000+0 -89716-3 0  2576
2 68174  53.1578 104.1235 0001332  89.1433 312.6816 15.34397906    15

Track STARLINK-37078 in real time with AllMySat

Download on the App Store